TimeEST,TemperatureF,Dew PointF,Humidity,Sea Level PressureIn,VisibilityMPH,Wind Direction,Wind SpeedMPH,Gust SpeedMPH,PrecipitationIn,Events,Conditions,WindDirDegrees,DateUTC
12:53 AM,46.0,43.0,89,29.97,7.0,SSW,18.4,-,N/A,,Partly Cloudy,210,2013-01-20 05:53:00
1:53 AM,46.0,43.0,89,29.96,7.0,SSW,13.8,-,N/A,,Mostly Cloudy,210,2013-01-20 06:53:00
2:15 AM,46.4,42.8,87,29.95,7.0,SSW,13.8,-,N/A,,Overcast,210,2013-01-20 07:15:00
2:44 AM,46.4,44.6,93,29.93,7.0,SSW,15.0,-,N/A,,Overcast,210,2013-01-20 07:44:00
2:53 AM,46.0,43.0,89,29.93,7.0,SSW,15.0,-,N/A,,Mostly Cloudy,210,2013-01-20 07:53:00
3:53 AM,45.0,43.0,93,29.88,6.0,SSW,11.5,-,N/A,,Clear,210,2013-01-20 08:53:00
4:53 AM,43.0,42.1,97,29.85,5.0,SSW,10.4,-,N/A,,Clear,200,2013-01-20 09:53:00
5:53 AM,45.0,43.0,93,29.83,6.0,SW,17.3,-,N/A,,Clear,220,2013-01-20 10:53:00
6:53 AM,45.0,42.1,90,29.81,7.0,SSW,17.3,-,N/A,,Clear,210,2013-01-20 11:53:00
7:53 AM,46.0,42.1,86,29.78,6.0,SSW,18.4,-,N/A,,Clear,210,2013-01-20 12:53:00
8:53 AM,46.9,41.0,80,29.76,7.0,SSW,18.4,26.5,N/A,,Clear,210,2013-01-20 13:53:00
9:53 AM,48.9,41.0,74,29.76,7.0,SW,18.4,28.8,N/A,,Clear,220,2013-01-20 14:53:00
10:53 AM,50.0,42.1,74,29.73,7.0,SW,20.7,27.6,N/A,,Clear,220,2013-01-20 15:53:00
11:53 AM,50.0,41.0,71,29.69,7.0,SW,23.0,29.9,N/A,,Clear,230,2013-01-20 16:53:00
12:53 PM,50.0,42.1,74,29.67,7.0,SW,23.0,29.9,N/A,,Clear,230,2013-01-20 17:53:00
1:53 PM,48.9,41.0,74,29.65,7.0,SW,21.9,-,N/A,,Clear,230,2013-01-20 18:53:00
2:53 PM,48.0,41.0,77,29.66,6.0,WSW,21.9,-,N/A,,Haze,240,2013-01-20 19:53:00
3:53 PM,46.9,37.9,71,29.69,10.0,West,17.3,27.6,N/A,,Clear,260,2013-01-20 20:53:00
4:53 PM,46.0,37.0,71,29.71,10.0,WSW,19.6,-,N/A,,Clear,250,2013-01-20 21:53:00
5:53 PM,45.0,37.0,74,29.73,10.0,WSW,16.1,-,N/A,,Clear,250,2013-01-20 22:53:00
6:53 PM,44.1,36.0,73,29.75,10.0,West,12.7,-,N/A,,Clear,260,2013-01-20 23:53:00
7:53 PM,42.1,34.0,73,29.77,10.0,West,10.4,-,N/A,,Clear,270,2013-01-21 00:53:00
8:53 PM,39.9,24.1,53,29.82,10.0,NNW,17.3,25.3,N/A,,Clear,330,2013-01-21 01:53:00
9:53 PM,37.0,21.0,52,29.87,10.0,NW,23.0,29.9,N/A,,Clear,310,2013-01-21 02:53:00
10:53 PM,35.1,18.0,50,29.90,10.0,NW,18.4,29.9,N/A,,Clear,310,2013-01-21 03:53:00
11:53 PM,33.1,15.1,48,29.92,10.0,NW,16.1,25.3,N/A,,Clear,310,2013-01-21 04:53:00